Location: Guferjoch
(46.7462°N, 8.4506°E)
Time: 23:43:15
(UTC+00:00)

Cosmos 1833 Rocket - Pass Details

Date: 14 July 2020
Orbit: 832 x 840 km, 71.0° (Epoch: 14 August)

Event Time Altitude Azimuth Distance (km) Brightness Sun altitude
Exits shadow 02:26:28 13° 237° (WSW) 2,200 4.3 -11.1°
Maximum altitude 02:31:03 42° 305° (NW) 1,176 3.4 -10.6°
Drops below altitude 10° 02:36:23 10° 16° (NNE) 2,455 6.2 -10.0°
Sets 02:38:59 0° 24° (NNE) 3,394 7.4 -9.7°
